Theta_e
304 304 305 304 301 300 300 302 303 302 302 303 301 301 302 302 301 302 303 304 305 304 304 304 304 304 304 305 306 307 307 307 304 302 299 297 295 294 294 295 295 294 294 294
302 303 303 302 301 303 302 303 303 303 302 302 302 303 302 301 302 304 304 304 304 304 303 303 304 304 304 304 306 307 307 306 303 301 298 296 294 294 294 294 294 294 294 294
302 303 303 302 303 303 303 303 302 303 303 301 301 303 302 302 302 304 303 304 303 304 304 303 304 304 304 304 306 306 306 304 301 299 298 295 294 294 293 294 294 294 294 294
303 304 303 303 303 303 304 302 302 304 304 304 301 307 303 304 303 302 304 304 304 304 303 304 304 304 304 304 306 305 303 301 299 298 295 294 294 294 294 294 293 293 293 293
302 304 304 304 304 303 304 304 304 304 303 303 304 304 306 304 308 304 303 305 304 303 303 304 304 304 304 304 305 304 301 299 299 298 294 294 294 294 294 293 293 293 293 292
304 304 304 304 304 304 303 304 303 301 304 308 307 307 314 312 308 303 303 304 303 302 302 303 304 304 304 304 304 302 300 299 298 296 294 293 294 294 293 293 292 293 292 292
303 305 304 304 304 305 305 305 308 310 308 312 302 304 311 305 303 302 302 303 302 301 301 302 303 303 303 304 304 301 299 299 298 295 293 293 293 293 292 292 292 292 292 292
303 303 305 303 304 304 304 306 309 311 313 309 301 308 313 303 302 303 302 302 302 301 301 301 303 304 304 303 304 301 299 299 298 294 293 292 292 292 291 292 292 292 292 292
304 306 303 303 303 303 305 305 305 304 293 307 309 309 309 304 301 302 302 302 302 302 302 302 302 303 303 303 304 301 299 299 297 294 293 292 293 292 292 292 291 291 291 291
303 308 303 304 303 304 304 302 307 304 307 309 310 306 311 306 303 300 300 302 303 303 303 303 303 303 303 303 303 300 298 299 297 294 293 293 292 292 292 292 292 292 291 290
305 308 306 304 304 304 304 304 304 305 307 310 310 311 301 303 302 302 301 305 305 305 305 303 303 303 303 303 301 299 298 298 297 294 292 292 292 292 292 292 291 291 291 290
307 305 307 306 302 302 302 304 304 309 309 304 306 310 302 300 301 302 304 305 306 306 305 304 303 303 303 302 301 299 298 298 296 294 293 292 292 292 292 291 291 291 290 290
307 305 305 307 304 301 304 303 303 303 304 305 309 310 302 300 301 304 304 306 306 305 305 304 303 303 303 302 301 299 299 298 297 294 293 292 292 291 291 291 291 291 290 290
306 304 307 311 309 304 306 304 303 304 304 306 306 308 306 306 304 305 307 307 305 305 304 304 303 303 303 302 301 299 299 298 298 295 293 292 292 291 291 291 290 290 290 289
305 305 307 307 305 303 306 306 303 303 305 307 308 305 306 305 304 305 306 303 302 303 303 304 304 303 302 302 302 300 299 299 298 296 293 292 291 291 291 290 290 290 290 289
303 307 304 301 302 304 306 304 303 304 304 302 303 305 304 306 306 306 306 302 301 302 303 303 304 303 303 303 302 301 299 298 298 296 293 292 291 291 290 290 290 289 289 289
306 299 302 302 296 302 303 302 304 303 302 304 306 306 305 305 305 306 305 301 301 301 302 303 304 304 304 303 303 302 301 299 298 296 293 291 291 291 290 290 290 290 289 289
305 300 293 297 294 304 304 301 303 305 304 302 303 304 304 305 306 304 301 300 301 302 302 303 303 303 304 303 303 302 301 300 298 297 295 292 291 290 290 290 290 289 289 289
303 302 301 301 292 299 304 300 301 304 304 302 304 303 304 304 302 302 302 302 301 302 303 303 304 304 303 303 302 301 301 300 299 298 296 294 291 290 290 290 289 289 289 289
303 302 300 297 296 300 299 300 300 301 301 298 302 302 302 300 300 299 301 302 302 302 302 303 304 304 304 303 302 301 301 300 300 300 298 294 293 291 290 290 289 289 288 289
304 304 306 294 293 296 297 299 300 300 300 298 301 300 300 298 299 298 299 300 300 302 302 301 303 303 303 302 302 301 300 301 301 301 299 296 296 291 290 289 289 289 288 288
302 304 303 299 299 302 298 298 300 298 299 299 300 300 300 299 299 300 300 300 300 301 302 303 301 302 301 301 301 301 301 300 302 302 299 296 297 291 290 289 289 288 288 288
298 297 297 300 301 297 297 297 298 299 299 299 296 294 295 294 294 294 297 300 301 302 300 301 302 300 301 301 300 300 300 300 300 302 299 298 296 292 290 289 288 288 288 288
295 295 295 299 297 295 294 295 295 295 294 294 293 292 292 293 293 294 296 298 299 300 301 300 301 302 300 300 300 300 299 298 298 298 300 300 296 292 291 289 288 288 288 289
294 295 295 294 295 295 294 295 294 293 293 293 292 292 292 292 292 292 293 295 297 298 299 300 298 301 302 300 300 299 299 298 298 297 298 297 296 296 291 290 289 289 289 289
292 293 296 297 297 297 296 295 293 293 292 292 292 292 292 291 291 291 291 292 293 296 296 298 299 297 302 302 300 299 300 299 297 296 298 298 295 296 295 290 289 288 288 289
Wind_Speed
2 3 6 9 5 5 7 4 3 2 1 3 5 9 16 13 19 25 30 32 34 31 21 19 15 11 7 5 4 4 7 7 5 4 4 6 8 12 13 16 17 18 21 22
6 5 4 6 5 4 4 4 4 2 2 3 4 13 12 12 15 29 35 36 35 32 28 24 20 15 10 8 6 7 9 8 7 3 2 4 6 9 12 15 16 18 20 22
6 1 4 4 4 6 3 5 4 3 2 1 5 8 5 5 14 21 17 22 24 32 33 29 24 18 13 10 9 9 10 10 7 3 1 2 5 8 11 13 14 18 19 20
3 0 4 3 4 4 4 4 5 6 3 3 3 5 6 6 9 6 8 10 19 25 30 31 27 22 17 14 12 12 12 10 7 4 1 2 5 5 8 12 16 16 17 19
5 3 3 3 2 3 3 3 5 3 4 3 3 2 8 5 6 5 9 18 11 18 25 35 32 24 19 16 15 16 14 11 7 5 3 3 4 5 8 12 12 13 15 19
3 2 2 2 2 2 7 6 6 5 3 2 1 3 6 2 1 6 7 14 10 12 20 28 31 26 22 19 18 17 15 11 9 6 4 4 5 6 9 10 9 12 15 18
3 2 1 2 5 2 1 5 1 3 2 4 2 3 10 4 6 2 10 17 7 7 16 27 34 30 25 23 22 21 17 14 10 7 5 4 4 6 7 7 8 11 14 18
6 3 4 2 1 5 4 4 5 6 3 3 3 5 5 4 4 4 5 6 2 3 12 22 32 30 27 25 24 23 20 16 12 9 7 6 5 4 4 6 7 11 13 16
4 1 3 3 2 1 4 3 2 7 3 3 2 6 5 2 5 8 7 4 2 4 9 19 30 31 28 25 24 23 21 17 14 11 9 8 7 6 5 5 6 10 12 16
6 4 3 3 2 3 1 3 3 2 3 3 3 5 4 3 5 7 6 3 0 4 9 18 29 31 28 25 24 24 21 18 15 13 11 10 9 7 6 5 6 9 10 14
5 4 1 1 4 5 1 1 4 3 3 4 3 5 5 5 0 2 4 3 4 6 10 17 27 31 29 27 26 25 24 21 18 15 13 11 10 9 7 6 7 9 10 12
3 5 4 4 1 1 1 3 5 3 5 1 2 5 4 4 1 1 5 8 15 12 12 15 23 30 32 30 29 28 26 22 19 16 14 12 11 11 9 8 7 9 10 12
5 0 3 2 1 2 4 4 3 4 2 5 5 5 1 3 3 8 11 23 25 18 15 16 21 30 33 33 31 30 29 26 23 20 17 15 14 13 11 9 9 9 10 11
5 3 3 5 3 4 4 4 4 4 3 4 4 5 5 6 6 11 24 25 24 21 16 18 21 27 34 35 34 33 31 29 27 24 21 18 16 15 13 11 11 10 10 11
3 4 2 1 2 0 2 3 7 7 5 5 3 7 4 6 5 13 16 21 24 21 16 19 22 25 32 37 37 36 35 33 30 27 24 21 18 18 16 14 13 12 12 12
3 3 3 2 2 3 4 6 6 7 5 7 10 15 7 17 2 9 16 18 26 23 18 15 21 26 29 34 39 38 38 36 33 30 27 24 23 21 19 17 15 14 14 13
5 5 3 4 3 3 7 9 13 7 5 7 9 10 5 2 7 13 14 18 20 23 21 15 15 22 27 30 35 40 39 38 36 32 29 28 25 23 22 20 18 17 16 15
4 5 2 2 3 3 3 2 4 10 4 11 5 7 3 7 14 7 14 19 16 19 22 20 13 15 21 26 31 36 40 41 39 35 33 31 29 26 24 23 21 20 19 17
3 3 3 5 4 8 9 6 8 7 1 5 13 5 10 4 3 10 19 20 18 16 17 17 14 8 12 19 24 32 39 42 41 38 37 35 31 28 27 26 24 22 21 19
6 1 3 3 5 8 5 3 7 4 2 5 8 6 4 5 4 3 19 25 26 20 17 14 13 11 10 14 20 26 33 40 42 39 39 36 32 31 29 28 26 24 22 20
8 5 7 4 3 8 8 2 9 6 6 7 15 12 11 4 5 9 16 23 27 28 24 17 14 12 9 10 16 22 28 35 35 40 42 39 36 34 31 29 29 27 25 23
8 6 5 3 2 11 5 4 5 8 14 16 16 14 13 11 12 16 19 22 24 28 29 26 17 14 12 10 12 18 25 27 32 34 41 40 37 37 34 33 31 30 28 26
3 6 5 7 5 3 3 16 20 19 22 17 15 11 9 11 14 16 18 20 22 24 27 27 25 16 12 11 12 17 18 25 31 31 39 42 41 40 37 36 35 34 32 29
3 3 3 3 2 9 24 21 20 18 15 11 12 12 12 12 14 16 18 21 22 22 24 25 24 20 14 11 11 12 17 22 24 31 35 41 43 43 40 38 38 36 36 34
2 7 4 3 7 17 10 13 11 9 10 10 13 13 12 12 13 15 17 18 21 23 23 24 24 22 18 13 11 10 14 19 22 26 30 40 44 43 43 41 40 40 37 34
5 5 4 3 7 3 12 4 4 8 8 13 17 20 18 15 16 19 20 19 18 21 23 24 24 24 22 19 15 12 13 15 20 26 29 33 44 48 45 44 43 42 38 34
Wind_Direction
83 108 191 201 174 139 132 156 184 169 151 177 238 270 279 248 241 242 241 234 231 228 221 218 217 221 217 213 205 184 173 164 139 117 45 31 34 50 56 56 55 52 49 47
36 225 202 113 142 120 133 140 193 119 108 174 336 281 262 243 239 239 240 238 235 229 217 213 213 217 213 212 206 193 184 180 165 144 58 33 47 64 63 59 56 54 50 48
155 253 135 116 149 140 172 170 172 164 125 116 325 293 316 275 258 263 265 263 255 239 220 211 211 212 213 208 202 190 182 178 171 166 105 52 61 67 68 67 61 55 50 47
120 75 155 129 179 138 190 189 130 127 103 240 11 281 301 279 289 7 342 301 262 240 223 215 210 209 208 204 198 186 181 180 182 173 153 98 88 90 83 71 60 55 53 51
207 135 149 159 177 173 186 102 105 96 102 75 338 53 269 360 314 5 353 339 295 247 229 212 208 207 203 201 196 190 189 189 191 182 173 124 113 112 87 70 61 56 56 55
98 90 71 101 62 35 151 79 53 53 93 26 286 132 283 237 324 321 324 333 293 239 223 214 205 199 197 196 196 195 193 195 200 195 172 150 146 126 87 74 65 63 59 59
30 20 14 115 90 32 133 105 349 355 26 212 169 76 249 328 301 282 313 325 318 232 213 207 202 196 196 198 196 196 195 200 201 195 172 171 160 123 98 85 74 67 65 62
144 239 178 354 155 176 176 175 163 198 186 175 123 226 254 274 336 5 359 7 38 201 215 212 203 202 202 199 200 197 199 199 200 192 181 173 160 119 92 85 79 74 68 65
131 46 328 28 346 52 185 187 133 101 22 78 241 279 314 319 40 31 27 39 114 174 200 208 206 207 207 204 202 201 200 199 199 196 191 180 163 148 125 98 77 71 70 68
177 91 8 332 335 28 195 154 79 1 151 236 289 285 232 262 338 2 8 28 221 207 212 206 205 209 210 209 206 204 203 205 203 200 196 188 174 164 150 126 105 89 77 72
146 107 322 7 207 187 147 183 54 108 141 159 149 258 206 202 15 335 332 39 320 266 240 221 208 207 211 210 209 207 205 206 206 204 200 194 184 175 167 147 130 109 97 88
210 115 145 196 236 219 261 224 176 138 196 94 110 276 182 217 110 227 300 310 335 306 272 240 219 212 212 211 210 210 210 210 209 210 208 201 193 186 179 164 145 126 112 102
177 158 90 24 15 6 215 202 162 117 92 188 143 253 213 219 233 284 314 341 334 316 276 249 226 219 217 215 213 212 211 210 210 211 209 205 200 195 186 173 161 144 130 119
125 97 152 185 129 113 186 191 198 147 128 182 215 264 289 296 324 338 342 340 335 321 282 258 238 226 221 219 218 216 214 213 212 210 210 207 203 199 193 185 172 160 147 133
90 120 106 113 98 80 239 173 174 197 195 191 221 225 251 258 303 321 340 356 352 344 296 262 249 235 226 222 220 219 218 215 213 212 211 208 205 202 198 193 182 172 162 148
1 126 92 342 3 206 254 226 195 215 235 254 262 281 193 284 299 340 345 359 3 356 340 286 259 246 236 228 225 221 219 218 215 214 213 210 207 203 201 197 191 182 174 163
151 131 112 257 356 345 289 201 195 191 193 172 197 227 219 358 332 333 330 354 356 3 358 333 281 260 251 239 231 226 223 219 217 215 214 214 212 207 202 200 196 190 183 175
149 111 102 166 38 256 274 119 186 203 198 215 250 241 232 298 306 4 8 350 352 356 359 353 322 277 259 250 239 232 226 222 219 217 217 217 215 209 206 204 198 196 190 182
159 122 132 157 194 308 290 193 163 168 247 225 230 252 282 299 109 49 22 20 7 359 359 356 346 311 273 259 247 234 227 223 220 220 220 219 216 214 211 209 203 200 196 189
150 258 130 152 158 213 253 260 182 129 343 348 149 143 115 111 88 269 21 26 25 17 5 2 0 340 295 269 251 238 231 225 221 226 225 222 222 218 215 212 207 204 199 197
187 197 206 186 205 281 247 228 164 113 191 88 118 88 71 92 79 5 22 28 25 22 16 10 10 356 341 293 263 248 236 229 223 228 227 223 226 221 217 215 210 207 203 200
177 179 197 143 126 260 177 119 194 141 109 104 94 84 71 65 38 22 18 15 15 15 14 15 7 357 340 313 278 256 247 232 225 229 229 226 229 223 218 216 212 209 207 205
208 183 178 182 211 51 141 122 120 114 108 99 86 64 47 29 16 7 1 1 360 4 3 7 8 359 348 327 298 271 259 244 236 228 225 224 230 226 222 218 213 213 209 208
256 167 167 109 181 140 121 116 107 101 97 76 47 37 19 5 358 353 349 346 344 344 345 349 354 357 342 322 315 291 265 251 244 235 232 227 225 227 224 220 218 217 215 212
213 146 168 260 83 132 139 116 95 76 47 29 9 4 354 343 340 338 338 337 335 334 331 329 334 337 338 313 295 286 271 255 245 237 236 229 225 227 227 225 223 220 221 222
188 190 177 239 151 143 180 80 46 357 350 341 344 336 330 320 320 321 320 321 320 322 324 318 317 321 323 315 294 273 277 261 248 240 236 232 223 226 229 227 225 223 224 224